Voltar ao catálogo

TITAN 34B R/B

AtivoHEO
NORAD 17507·ROCKET BODY·🇺🇸 United States

Lançado Feb 12, 1987 de Vandenberg Space Force Base

Loading…

Próximas Passagens (próximas 24 horas)

TLE

AtualizadoSource: Space-Track

Época: Sep 13, 2026, 18:22 UTC

1 17507U 87015B   26256.76552849  .00001097  00000-0  00000-0 0  9995
2 17507  63.0386  98.8376 7237077 265.7715  16.5593  2.04986781 54323

Acompanhe TITAN 34B R/B em tempo real com AllMySat

Download on the App Store